Home > Weather > Louisville > Past weeks

Flag for U.S.A. Weather for the Past 2 Weeks in Louisville, Kentucky, U.S.A.

Now
49 °F

Mostly cloudy.


Feels Like: 45 °F
Forecast: 27 / 45 °F
Wind: 8 mph from Southwest

Location: Standiford Field

Current Time: Feb 8, 2016 at 12:05:33 AM

Latest Report: Feb 7, 2016 at 10:56 PM


Visibility: 10 mi

Pressure: 29.80 "Hg

Humidity: 36%

Dew point: 23 °F

Location of LouisvilleLocation

Historic Weather in Louisville — Graph

°F

Louisville Temperature Yesterday

Maximum temperature yesterday: 56 °F (at 2:56 PM)
Minimum temperature yesterday: 32 °F (at 3:56 AM)
Average temperature yesterday: 45 °F

High & Low Weather Summary for the Past Weeks

 TemperatureHumidityPressure
High68 °F (Jan 31, 3:56 PM)90% (Feb 2, 10:56 PM)30.47 "Hg (Feb 2, 10:56 PM)
Low14 °F (Jan 24, 6:56 AM)24% (Feb 7, 1:56 PM)29.57 "Hg (Feb 2, 10:56 PM)
Average43 °F59%30.04 "Hg
* Reported Jan 23 9:56 PM — Feb 7 9:56 PM, Louisville, Weather by CustomWeather, © 2016

Note: Actual official high and low records may vary slightly from our data, if they occured in-between our weather recording intervals... More about our weather records

Advertising

Louisville Weather History for the Previous 24 Hours

 ConditionsComfort  
Time TempWeatherWind HumidityBarometerVisibility
9:56 PM
Sun, Feb 7
48 °FPassing clouds.8 mph34%29.83 "Hg10 mi
8:56 PM49 °FPartly cloudy.8 mph33%29.86 "Hg10 mi
7:56 PM49 °FPartly cloudy.7 mph32%29.88 "Hg10 mi
6:56 PM50 °FPassing clouds.8 mph30%29.89 "Hg10 mi
5:56 PM53 °FScattered clouds.8 mph26%29.89 "Hg10 mi
4:56 PM55 °FScattered clouds.15 mph24%29.90 "Hg10 mi
3:56 PM56 °FPartly sunny.16 mph24%29.92 "Hg10 mi
2:56 PM56 °FPartly sunny.17 mph24%29.95 "Hg10 mi
1:56 PM55 °FPartly sunny.16 mph24%29.99 "Hg10 mi
12:56 PM54 °FScattered clouds.12 mph27%30.04 "Hg10 mi
11:56 AM50 °FBroken clouds.13 mph33%30.09 "Hg10 mi
10:56 AM47 °FMore clouds than sun.14 mph36%30.11 "Hg10 mi
9:56 AM46 °FBroken clouds.9 mph38%30.11 "Hg10 mi
8:56 AM39 °FPartly sunny.6 mph53%30.14 "Hg10 mi
7:56 AM37 °FPartly sunny.7 mph52%30.16 "Hg10 mi
6:56 AM37 °FPassing clouds.6 mph52%30.15 "Hg10 mi
5:56 AM36 °FPassing clouds.3 mph54%30.16 "Hg10 mi
4:56 AM33 °FClear.3 mph63%30.17 "Hg10 mi
3:56 AM32 °FClear.3 mph69%30.19 "Hg10 mi
2:56 AM33 °FClear.5 mph66%30.20 "Hg9 mi
1:56 AM34 °FClear.5 mph67%30.21 "Hg9 mi
12:56 AM36 °FPassing clouds.No wind62%30.23 "Hg9 mi
Weather by CustomWeather, © 2016

See weather overviewHow to use our weather pages